Location: Rounton
(54.4000°N, 1.3500°W)
Time: 04:29:22
(UTC+00:00)

S-56A Canister/Altair - Pass Details

Date: 06 December 2021
Orbit: 633 x 2499 km, 38.9° (Epoch: 17 January)

Event Time Altitude Azimuth Distance (km) Brightness Sun altitude
Rises 21:29:22 0° 197° (SSW) 5,684 - -48.0°
Reaches altitude 10° 21:36:01 10° 175° (S) 4,280 - -48.7°
Maximum altitude 21:40:34 13° 151° (SSE) 3,681 - -49.3°
Drops below altitude 10° 21:44:33 10° 125° (SE) 3,631 - -49.7°
Sets 21:49:11 0° 101° (E) 4,208 - -50.2°
